Regional Weather Roundup
Issued by NWS

Home | Current Version | Previous Version | Text Only | Print | Product List | Glossary Off
Versions: 1 2 3 4 5 6 7 8 9 10 11 12 13 14 15 16 17 18 19 20 21 22 23 24 25 26 27 28 29 30 31 32 33 34 35 36 37 38 39 40 41 42 43 44 45 46 47 48 49 50

000
ASUS45 KPSR 272310
RWRAZ

ARIZONA HOURLY REGIONAL WEATHER ROUNDUP
NATIONAL WEATHER SERVICE PHOENIX AZ
400 PM MST MON JUL 27 2015

NOTE: FAIR INDICATES FEW OR NO CLOUDS BELOW 12,000 FEET WITH NO
SIGNIFICANT WEATHER AND/OR OBSTRUCTIONS TO VISIBILITY.

AZZ001>003-036-280000-
NORTHWEST ARIZONA

CITY           SKY/WX    TMP DP  RH WIND       PRES   REMARKS
BULLHEAD CITY  SUNNY    104  30   7 S12       29.71F
KINGMAN        SUNNY     95  13   5 SW18      29.93F
$$

AZZ004>008-015-016-018-280000-
NORTH CENTRAL ARIZONA

CITY           SKY/WX    TMP DP  RH WIND       PRES   REMARKS
GRAND CANYON   SUNNY     85  19   9 W18G32    30.14F
WILLIAMS       SUNNY     81  36  19 SW17G24   30.24F
PRESCOTT       MOSUNNY   87  47  24 SW16G22   30.06F
FLAGSTAFF      SUNNY     80  43  26 SW16G24   30.20S
PAYSON         SUNNY     88  41  19 SW13G21   30.09F
PAGE           SUNNY     97  25   7 SW10G21   29.90F
$$

AZZ009>014-017-280000-
NORTHEAST ARIZONA

CITY           SKY/WX    TMP DP  RH WIND       PRES   REMARKS
WINSLOW        SUNNY     93  40  15 SW15G22   30.01F
SAINT JOHNS    MOSUNNY   89  41  18 SW9       30.07F
WINDOW ROCK    SUNNY     88  34  14 SW14G25   30.15F
SHOW LOW       SUNNY     82  37  20 SW17G23   30.16F
$$

AZZ023-280000-
GREATER PHOENIX AREA

CITY           SKY/WX    TMP DP  RH WIND       PRES   REMARKS
PHOENIX        MOSUNNY  105  51  16 SW12      29.75F HX 102
GLENDALE       MOSUNNY  106  54  17 SW14      29.77F HX 104
LUKE AFB       SUNNY    104  55  20 SW12G20   29.74F HX 103
DEER VALLEY    SUNNY    101  51  18 SW14G23   29.78F
SCOTTSDALE     SUNNY    101  50  18 SW6       29.80F
MESA-GATEWAY   MOSUNNY  102  52  18 W12       29.80F HX 100
CHANDLER       MOSUNNY  104  50  16 S12       29.76F HX 101
$$

AZZ027-028-280000-
SOUTHWEST MARICOPA COUNTY AND PINAL COUNTY

CITY           SKY/WX    TMP DP  RH WIND       PRES   REMARKS
CASA GRANDE    SUNNY    102  52  18 W5        29.77F HX 100
GILA BEND      MOSUNNY  106  51  16 S13G25    29.72F HX 104
$$

AZZ503-504-507>509-280000-
SOUTHEAST ARIZONA

CITY           SKY/WX    TMP DP  RH WIND       PRES   REMARKS
TUCSON         MOSUNNY  101  48  16 W15G22    29.88F
DAVIS-MONTHAN  MOSUNNY   98  49  19 NW8       29.86F
RYAN FIELD     SUNNY     99  50  19 S8        29.87F
NOGALES        PTSUNNY   89  59  36 SW12      29.99
SIERRA VISTA   MOSUNNY   90  49  24 NW12G20   30.04F
DOUGLAS          N/A    N/A N/A N/A MISG      29.98F
SAFFORD        MOSUNNY  100  47  16 W12       29.87F
$$

AZZ020-021-025-026-031-280000-
SOUTHWEST ARIZONA

CITY           SKY/WX    TMP DP  RH WIND       PRES   REMARKS
YUMA           MOSUNNY  107  48  14 S9        29.70F HX 103
$$

CAZ031-033-041-043-047-048-061-280000-
SOUTHERN CALIFORNIA

CITY           SKY/WX    TMP DP  RH WIND       PRES   REMARKS
DOWNTOWN L.A.  SUNNY     76  60  57 VRB5      29.88F
L.A. AIRPORT   MOSUNNY   74  60  61 W13       29.89F
SAN DIEGO      MOSUNNY   74  59  59 SW9       29.91F
BURBANK        SUNNY     81  59  47 S10       29.87F
ONTARIO        MOSUNNY   86  57  37 W14G22    29.87F
RIVERSIDE      SUNNY     86  57  37 W13       29.86F
PALM SPRINGS   SUNNY    104  45  13 NW20G28   29.73F HX 100
EL CENTRO NAS  MOSUNNY  106  25   6 SE8       29.70F
IMPERIAL       SUNNY    106  27   6 VRB5      29.68F
BLYTHE         SUNNY    105  25   6 S13       29.70F
NEEDLES        SUNNY    107  28   6 S17G23    29.72F
$$

NVZ020-UTZ003-280000-
SOUTHERN NEVADA-UTAH

CITY           SKY/WX    TMP DP  RH WIND       PRES   REMARKS
LAS VEGAS      SUNNY    101  23   6 VRB3      29.75F
SALT LAKE CITY MOSUNNY   76  42  29 N12       30.04S
$$

NMZ009-TXZ055-280000-
NEW MEXICO-WEST TEXAS

CITY           SKY/WX    TMP DP  RH WIND       PRES   REMARKS
ALBUQUERQUE    PTSUNNY   91  45  20 SW10      30.04F
EL PASO        MOSUNNY   99  49  18 SW7G21    29.91F
$$


........................KEY........................
SKY/WX - SKY CONDITION/WEATHER
TMP    - TEMPERATURE IN FAHRENHEIT
DP     - DEW POINT IN FAHRENHEIT
RH     - RELATIVE HUMIDITY IN PERCENT
WIND   - DIRECTION AND SPEED IN MILES PER HOUR (MPH)
VRB    - VARIABLE WIND DIRECTION
PRES   - MEAN SEA LEVEL PRESSURE IN INCHES OF MERCURY
         F - FALLING PRESSURE   R - RISING PRESSURE
         S - STEADY PRESSURE
VSB    - VISIBILITY IN MILES
HX     - HEAT INDEX IN FAHRENHEIT
WCI    - WIND CHILL INDEX IN FAHRENHEIT
TC     - TEMPERATURE IN CELSIUS WHICH IS ALSO KNOWN AS
         TEMPERATURE IN CENTIGRADE
AFB    - AIR FORCE BASE
         LUKE AFB IS LUKE AIR FORCE BASE
         DAVIS-MONTHAN IS DAVIS-MONTHAN AIR FORCE BASE
NAS    - NAVAL AIR STATION
         EL CENTRO NAS IS EL CENTRO NAVAL AIR STATION
N/A    - NOT AVAILABLE



USA.gov is the U.S. government's official web portal to all federal, state and local government web resources and services.